User: anonymous   Login
Location: Unspecified
(0.0000°N, 0.0000°E)
Time: 09:13:54
(UTC+00:00)
Language:

NORSAT 2 - Orbit

View from above orbital plane
View from above orbital plane
View from above satellite
View from above satellite

Ground track
Ground track

The orbit data is extracted from the following two-line orbital elements,

1 42828U 17042D   18018.41120918  .00000498  00000-0  55973-4 0  9996
2 42828  97.6097 286.3555 0014154 343.0693  17.0051 14.90874207 28018
Epoch (UTC): 18 January 2018 09:52:08
Eccentricity: 0.0014154
inclination: 97.6097°
perigee height: 585 km
apogee height: 605 km
right ascension of ascending node: 286.3555°
argument of perigee: 343.0693°
revolutions per day: 14.90874207
mean anomaly at epoch: 17.0051°
orbit number at epoch: 2801

The dashed part of the orbit path shows where the satellite is in the earth's shadow,  

DLR